Weather History for Vancouver, BC

Change the Weather History Date:

Friday, November 2, 2012

  Actual Average Record
Temperature  
Mean Temperature 55 °F -  
Max Temperature 59 °F 49 °F 59 °F (2010)
Min Temperature 51 °F 39 °F 28 °F (2002)
Degree Days  
Heating Degree Days 10    
Growing Degree Days 5 (Base 50)    
Moisture  
Dew Point 50 °F    
Average Humidity 85    
Maximum Humidity 94    
Minimum Humidity 72    
Precipitation  
Precipitation 0.08 in - - ()
Sea Level Pressure  
Sea Level Pressure 29.99 in    
Wind  
Wind Speed 8 mph ()    
Max Wind Speed 13 mph    
Max Gust Speed -    
Visibility 12.1 miles    
Events Rain    
Averages and records for this station are not official NWS values.
T = Trace of Precipitation, MM = Missing Value Source: Averaged Metar Reports

Daily Weather History Graph

Daily Weather History Graph

Search for Another Location

Airport:

Trip Planner

Search our weather history database for the weather conditions in past years. The results will help you decide how hot, cold, wet, or windy it might be!

Date:

Astronomy

Nov. 02, 2012 Rise Set
Actual Time 8:02 AM PDT 5:48 PM PDT
Civil Twilight 7:29 AM PDT 6:22 PM PDT
Nautical Twilight 6:51 AM PDT 6:59 PM PDT
Astronomical Twilight 6:14 AM PDT 7:36 PM PDT
Moon 8:29 PM PDT (11/2) 11:39 AM PDT (11/2)
Length of Visible Light 10h 52m
Length of Day
9h 45m
Waning Gibbous, 86% of the Moon is Illuminated
Nov 2
Waning Gibbous
Nov 6
Last Quarter
Nov 13
New
Nov 20
First Quarter
Nov 28
Full

Hourly Weather History & Observations

Time (PDT) Temp. Dew Point Humidity Pressure Visibility Wind Dir Wind Speed Gust Speed Precip Events Conditions
12:00 AM 51.8 °F 50.0 °F 94% 30.00 in 8.0 mi East 9.2 mph - N/A   Overcast
1:00 AM 51.8 °F 50.0 °F 94% 30.00 in 8.0 mi East 10.4 mph - N/A   Overcast
2:00 AM 51.8 °F 50.0 °F 94% 30.01 in 8.0 mi East 9.2 mph - N/A   Overcast
3:00 AM 51.8 °F 50.0 °F 94% 30.01 in 8.0 mi East 11.5 mph - N/A   Overcast
4:00 AM 51.8 °F 50.0 °F 94% 30.01 in 8.0 mi East 11.5 mph - N/A   Overcast
5:00 AM 52 °F 50 °F 90% 30.02 in 7 mi East 8.1 mph - -   Partly Cloudy
5:00 AM 51.8 °F 50.0 °F 94% 30.02 in 8.0 mi East 6.9 mph - N/A   Overcast
6:00 AM 53.6 °F 50.0 °F 88% 30.02 in 8.0 mi ESE 6.9 mph - N/A   Overcast
7:00 AM 53.6 °F 50.0 °F 88% 30.01 in 12.0 mi East 10.4 mph - N/A   Overcast
8:00 AM 53.6 °F 50.0 °F 88% 30.01 in 15.0 mi East 6.9 mph - N/A   Overcast
9:00 AM 55.4 °F 50.0 °F 82% 30.02 in 15.0 mi ESE 9.2 mph - N/A   Overcast
10:00 AM 55.4 °F 50.0 °F 82% 30.01 in 15.0 mi East 6.9 mph - N/A   Overcast
11:00 AM 56 °F 52 °F 80% 30.02 in 15 mi East 4.6 mph - -   Overcast
11:00 AM 55.4 °F 51.8 °F 88% 30.02 in 15.0 mi East 5.8 mph - N/A   Overcast
12:00 PM 59.0 °F 51.8 °F 77% 30.01 in 15.0 mi ENE 5.8 mph - N/A   Overcast
1:00 PM 57.2 °F 51.8 °F 82% 30.00 in 15.0 mi ESE 9.2 mph - N/A   Overcast
2:00 PM 57.2 °F 51.8 °F 82% 29.99 in 15.0 mi East 11.5 mph - N/A   Overcast
3:00 PM 59.0 °F 50.0 °F 72% 29.97 in 15.0 mi East 9.2 mph - N/A   Overcast
4:00 PM 59.0 °F 50.0 °F 72% 29.97 in 15.0 mi ESE 10.4 mph - N/A   Overcast
5:00 PM 57 °F 51 °F 73% 29.96 in 15 mi East 10.4 mph - -   Overcast
5:00 PM 57.2 °F 50.0 °F 77% 29.96 in 15.0 mi East 9.2 mph - N/A   Overcast
6:00 PM 57.2 °F 50.0 °F 77% 29.96 in 15.0 mi East 8.1 mph - N/A   Overcast
6:22 PM 57.2 °F - N/A% - 15.0 mi East 6.9 mph - N/A Rain Light Rain Showers
7:00 PM 55.4 °F 50.0 °F 82% 29.96 in 15.0 mi ESE 12.7 mph - N/A Rain Light Rain Showers
8:00 PM 53.6 °F 48.2 °F 82% 29.96 in 12.0 mi ESE 11.5 mph - N/A Rain Light Rain Showers
9:00 PM 51.8 °F 50.0 °F 94% 29.95 in 12.0 mi East 11.5 mph - N/A Rain Light Rain Showers
10:00 PM 53.6 °F 50.0 °F 88% 29.95 in 12.0 mi ENE 11.5 mph - N/A Rain Light Rain Showers
11:00 PM 54 °F 50 °F 82% 29.94 in 7 mi East 8.1 mph - - Rain Light Rain Showers
11:00 PM 53.6 °F 50.0 °F 88% 29.94 in 8.0 mi East 8.1 mph - N/A Rain Light Rain Showers